Regional Weather Roundup
Issued by NWS

Home | Current Version | Previous Version | Text Only | Print | Product List | Glossary On
Versions: 1 2 3 4 5 6 7 8 9 10 11 12 13 14 15 16 17 18 19 20 21 22 23 24 25 26 27 28
000
ASUS46 KPQR 051810
RWROR

OREGON REGIONAL WEATHER ROUNDUP
NATIONAL WEATHER SERVICE PORTLAND OR
1000 AM PST MON DEC 05 2016

NOTE: "FAIR" INDICATES FEW OR NO CLOUDS BELOW 12,000 FEET WITH
NO SIGNIFICANT WEATHER AND/OR OBSTRUCTIONS TO VISIBILITY.

ORZ001>013-051900-
NORTHWEST OREGON


CITY           SKY/WX    TMP DP  RH WIND       PRES   REMARKS
ASTORIA        RAIN      41  36  82 NE6       30.07S
6HR MIN TEMP:  38; 6HR MAX TEMP:  44; 6HR PCP:  0.07;

NEWPORT        LGT RAIN  37  36  93 S12       30.18S WCI  30
PORTLAND       LGT SNOW  37  34  89 SW8       30.16R WCI  31
6HR MIN TEMP:  37; 6HR MAX TEMP:  39; 6HR PCP:  0.12;

VANCOUVER WA   RAIN      37  33  85 VRB6      30.16R FOG     WCI  32
6HR MIN TEMP:  37; 6HR MAX TEMP:  39; 6HR PCP:  0.14;

SCAPPOOSE      LGT RAIN  36  34  92 S5        30.12F WCI  32
6HR MIN TEMP:  35; 6HR MAX TEMP:  37; 6HR PCP:  0.08;

HILLSBORO      SNOW      32  31  96 CALM      30.14S VSB 1/2
6HR MIN TEMP:  32; 6HR MAX TEMP:  37; 6HR PCP:  0.16;

AURORA         MIX PCPN  37  35  92 S10G20    30.15F WCI  30
6HR MIN TEMP:  37; 6HR MAX TEMP:  38; 6HR PCP:  0.06;

MCMINNVILLE    LGT RAIN  38  35  89 MISG      30.15S
6HR MIN TEMP:  36; 6HR MAX TEMP:  38; 6HR PCP:  0.12;

SALEM          LGT RAIN  38  34  85 S14       30.14F WCI  30
6HR MIN TEMP:  36; 6HR MAX TEMP:  38; 6HR PCP:  0.04;

CORVALLIS        N/A     39  34  81 S10       30.17F WCI  32
EUGENE         CLOUDY    39  34  82 S13       30.20F WCI  31
6HR MIN TEMP:  31; 6HR MAX TEMP:  39;

$$

ORZ021-028-051900-
SOUTHWEST OREGON


CITY           SKY/WX    TMP DP  RH WIND       PRES   REMARKS
NORTH BEND     PTSUNNY   41  39  93 SE10      30.23S
6HR MIN TEMP:  36; 6HR MAX TEMP:  41;

BROOKINGS      MOSUNNY   43  32  65 VRB7      30.23F
ROSEBURG       SUNNY     39  36  89 SE6       30.23S WCI  35
6HR MIN TEMP:  37; 6HR MAX TEMP:  39; 6HR PCP:  0.01;

SEXTON SUMMIT  MOSUNNY   28  27  96 SE6       30.10S WCI  22
6HR MIN TEMP:  24; 6HR MAX TEMP:  28;

MEDFORD        CLOUDY    33  33 100 N6        30.23S FOG     WCI  28
6HR MIN TEMP:  31; 6HR MAX TEMP:  33;

$$

ORZ014>016-041-051900-
COLUMBIA GORGE


CITY           SKY/WX    TMP DP  RH WIND       PRES   REMARKS
TROUTDALE      LGT RAIN  38  35  89 S6        30.16S FOG     WCI  33
6HR MIN TEMP:  37; 6HR MAX TEMP:  39;

THE DALLES     PTSUNNY   35  28  75 CALM      30.15F
6HR MIN TEMP:  31; 6HR MAX TEMP:  39;

$$

ORZ029>031-041-044-049-050-061>064-502-503-505>511-051900-
EASTERN OREGON


CITY           SKY/WX    TMP DP  RH WIND       PRES   REMARKS
REDMOND        SUNNY     31  20  63 SE6       30.06F WCI  25
6HR MIN TEMP:  18; 6HR MAX TEMP:  31;

BEND           SUNNY     32  19  59 SW15      30.05S WCI  22
PRINEVILLE     MOSUNNY   27  21  80 CALM      30.08S
KLAMATH FALLS  SUNNY     26  22  84 CALM      30.10F
6HR MIN TEMP:  17; 6HR MAX TEMP:  26;

LAKEVIEW       MOSUNNY   27  16  63 CALM      30.09S
HERMISTON      MOSUNNY   39  24  55 VRB3      30.13F
6HR MIN TEMP:  26; 6HR MAX TEMP:  39;

PENDLETON      MOSUNNY   37  21  52 S7        30.11S WCI  32
6HR MIN TEMP:  25; 6HR MAX TEMP:  37;

JOHN DAY       SUNNY     29  19  66 S13G18    30.08S WCI  19
MEACHAM        NOT AVBL
LA GRANDE      CLOUDY    32  14  47 S13       30.09S WCI  22
6HR MIN TEMP:  21; 6HR MAX TEMP:  32;

BAKER CITY     SUNNY     16  13  88 CALM      30.10S
6HR MIN TEMP:   2; 6HR MAX TEMP:  17;

BURNS          SUNNY     22  17  81 SW3       30.09F
6HR MIN TEMP:   7; 6HR MAX TEMP:  22;

ROME             N/A     29  14  53 S6        30.09F WCI  23
6HR MIN TEMP:  11; 6HR MAX TEMP:  29;

ONTARIO        SUNNY     29  18  63 CALM      30.20
6HR MIN TEMP:  18; 6HR MAX TEMP:  29;

$$




USA.gov is the U.S. government's official web portal to all federal, state and local government web resources and services.